Lapse_Rate
4.8 5.0 5.0 4.7 4.7 4.6 4.6 4.7 4.7 4.7 4.9 5.1 5.3 4.6 4.8 4.8 5.1 4.9 4.9 4.9 4.8 4.8 4.8 4.8 4.9 4.9 4.9 4.9 4.9 4.9 5.1 5.3 5.2 5.3 5.2 5.3 5.2 5.3 5.3 5.0 5.1 5.1 4.9
4.8 5.1 4.9 4.9 4.7 4.7 4.8 4.8 4.7 4.1 4.2 4.6 4.6 4.7 4.3 4.6 4.5 4.8 4.9 5.0 5.0 5.0 4.9 5.0 4.8 4.6 4.4 4.9 4.7 4.9 5.0 5.2 5.5 5.5 5.4 5.3 5.4 5.4 5.4 5.2 5.1 5.3 5.3
4.7 4.9 4.5 4.6 5.0 4.9 4.8 4.4 4.5 4.5 4.4 4.5 4.4 4.3 4.5 4.3 4.6 4.7 5.0 4.9 5.0 5.2 5.3 5.2 5.4 5.4 5.2 5.0 4.9 4.9 4.9 5.2 5.4 5.6 5.5 5.5 5.4 5.4 5.5 5.4 5.2 5.3 5.4
4.7 4.5 4.5 4.3 4.8 4.9 4.7 5.1 4.9 4.5 4.4 4.6 4.6 4.8 4.5 4.4 4.2 4.4 4.8 4.9 5.1 5.3 5.4 5.4 5.5 5.5 5.5 5.5 5.2 5.4 5.4 5.3 5.3 5.5 5.6 5.7 5.6 5.5 5.4 5.3 5.4 5.3 5.5
5.0 5.2 4.9 4.8 4.5 4.5 4.5 4.8 5.0 5.1 4.7 4.7 4.8 4.7 4.8 4.6 4.5 4.5 4.4 4.8 5.0 5.3 5.4 5.5 5.6 5.6 5.7 5.8 5.7 5.5 5.6 5.6 5.6 5.6 5.7 5.8 5.8 5.6 5.7 5.5 5.3 5.4 5.5
5.0 4.8 4.6 4.9 4.7 4.5 4.4 4.4 4.4 5.1 5.1 5.1 5.0 5.1 5.0 4.8 4.8 4.8 4.4 4.5 5.0 5.1 5.3 5.5 5.6 5.7 5.7 5.7 5.8 5.6 5.7 5.5 5.7 5.8 5.9 6.0 5.9 5.9 5.9 5.8 5.5 5.6 5.5
5.6 5.3 5.4 4.8 4.8 5.0 5.0 4.7 4.8 5.0 5.1 5.4 5.7 5.4 5.4 4.9 5.2 4.8 4.9 4.7 4.6 4.9 5.2 5.3 5.6 5.6 5.8 5.7 5.7 5.6 5.7 5.6 5.8 6.0 6.2 6.1 6.0 6.0 5.9 5.8 5.9 5.8 5.7
6.0 5.9 5.9 5.9 5.6 5.6 6.1 5.6 5.1 4.9 5.0 6.0 6.1 5.9 5.6 5.7 5.2 5.1 4.8 4.7 4.9 4.9 4.9 5.1 5.5 5.6 5.7 5.8 5.6 5.7 5.7 5.6 5.8 6.2 6.2 6.1 6.1 6.1 6.1 6.1 5.8 5.8 5.9
5.8 5.7 5.7 5.8 5.5 5.8 5.9 5.5 5.3 5.5 5.2 5.5 5.7 5.6 5.0 5.0 5.2 4.6 5.1 4.8 5.1 5.2 4.8 5.1 5.4 5.5 5.5 5.7 5.7 5.6 5.9 5.7 5.6 5.9 6.1 6.1 6.0 6.1 6.0 6.0 6.0 5.9 6.0
5.9 5.7 6.2 6.0 5.8 5.8 5.9 5.9 5.7 5.4 4.7 4.6 4.9 5.8 5.6 5.1 5.1 4.7 4.9 4.9 4.9 5.3 5.3 5.0 5.2 5.5 5.6 5.2 5.4 5.7 5.8 5.9 5.9 5.6 5.8 6.1 6.1 5.9 6.0 6.1 6.0 5.9 5.9
6.5 6.2 6.1 6.3 6.4 6.3 6.2 6.1 6.2 5.8 5.5 5.2 5.0 4.6 5.1 4.9 5.3 5.2 5.4 5.5 5.0 5.0 5.1 4.9 4.9 5.1 5.4 5.5 5.4 5.7 5.5 5.7 5.8 5.6 5.6 5.8 6.1 6.1 5.9 5.9 5.9 6.0 5.9
6.3 6.1 6.2 6.6 6.5 6.4 6.3 6.2 6.2 5.6 5.6 5.2 5.0 4.6 4.6 4.8 4.7 5.1 5.5 5.7 5.6 5.5 5.0 4.8 5.1 4.9 5.1 5.1 5.1 5.3 5.4 5.3 5.4 5.3 5.3 5.7 5.8 6.1 6.1 5.7 5.7 5.7 5.8
6.6 6.4 6.4 6.5 6.6 6.6 6.5 6.4 6.1 5.9 5.7 5.1 4.9 5.0 4.9 4.6 4.6 4.9 5.0 5.0 4.9 4.8 4.5 4.5 4.5 4.7 5.0 4.9 5.0 5.2 5.1 5.0 5.1 5.0 5.2 5.2 5.5 5.7 5.6 5.4 5.5 5.6 5.6
6.8 6.6 6.5 6.5 6.6 6.6 6.4 6.4 6.4 6.1 5.6 5.2 5.1 5.2 5.0 5.1 4.6 4.9 4.7 4.8 4.8 4.4 4.5 4.6 4.5 4.4 4.4 4.6 4.7 4.7 5.1 4.9 4.9 5.3 5.5 4.8 5.2 5.6 5.5 5.3 5.3 5.3 5.5
6.6 6.7 6.7 6.7 6.6 6.7 6.5 6.3 6.3 6.1 5.7 5.4 5.4 5.3 5.2 5.0 5.1 4.7 4.8 4.5 4.6 4.7 4.5 4.7 4.9 4.7 4.7 4.6 4.4 4.6 4.7 4.6 4.6 4.8 5.0 4.9 4.9 5.3 5.2 5.2 5.2 5.2 5.2
6.7 6.7 6.7 6.8 6.7 6.7 6.7 6.4 6.1 5.8 5.8 5.6 5.5 5.4 5.5 5.1 5.0 5.1 4.9 4.8 4.3 4.4 4.5 4.6 4.7 4.8 4.9 5.1 4.9 4.8 4.7 4.5 4.5 4.3 4.5 4.4 4.3 4.1 4.5 4.8 5.0 5.1 5.3
6.4 6.5 6.5 6.4 6.2 6.3 6.3 6.2 6.2 6.0 5.8 5.7 5.6 5.5 5.4 5.2 4.8 4.8 4.9 4.9 4.7 4.7 4.8 4.7 4.7 4.8 5.0 4.9 4.9 4.4 4.7 4.7 4.2 4.2 4.1 4.3 4.2 4.1 4.0 4.6 4.7 5.0 5.5
5.9 6.0 6.1 6.0 6.0 6.0 6.0 5.9 5.9 5.9 5.8 5.8 5.6 5.5 5.4 5.1 5.0 4.9 4.8 4.6 4.9 5.0 5.0 4.9 5.4 4.9 4.9 4.8 4.7 4.5 4.5 4.7 4.7 4.7 4.5 4.4 4.4 4.3 4.1 4.3 4.7 5.3 5.5
5.7 5.7 5.7 5.6 5.7 5.7 5.7 5.7 5.7 5.6 5.6 5.6 5.5 5.4 5.3 5.3 5.2 5.1 5.0 5.0 4.9 5.0 5.0 5.0 5.3 5.1 5.5 5.4 4.8 4.9 4.6 4.5 4.6 4.8 4.8 4.7 4.9 5.1 5.1 5.3 5.4 5.5 5.5
5.5 5.5 5.4 5.4 5.5 5.5 5.5 5.4 5.4 5.3 5.3 5.3 5.3 5.3 5.3 5.3 5.3 5.2 5.1 5.0 4.9 4.9 4.9 5.0 4.9 5.0 5.0 5.1 5.2 5.2 5.2 5.4 5.5 5.7 5.4 5.3 5.4 5.7 5.4 5.2 5.4 5.5 5.7
5.1 5.1 5.1 5.1 5.1 5.1 5.1 5.1 5.0 5.1 5.1 5.1 5.1 5.2 5.2 5.3 5.2 5.2 5.0 4.9 5.0 4.8 4.8 4.8 4.7 4.9 5.1 5.0 4.9 5.0 5.2 5.1 5.3 5.4 5.4 5.3 5.4 5.5 5.4 5.4 5.4 5.5 5.6
4.8 4.8 4.8 4.8 4.9 4.9 4.8 4.9 4.9 4.9 4.9 4.9 4.9 5.0 5.1 5.0 5.0 5.0 5.1 5.0 4.9 4.8 4.8 4.8 4.7 4.6 4.9 5.0 5.0 4.9 4.8 4.8 4.9 5.2 5.2 5.0 5.2 5.1 5.1 5.0 5.2 5.3 5.6
4.7 4.7 4.7 4.7 4.7 4.7 4.7 4.8 4.8 4.8 4.8 4.8 4.7 4.7 4.7 4.7 4.7 4.8 4.8 4.9 4.9 4.9 4.9 4.7 4.7 4.6 4.6 4.5 4.6 4.6 4.9 5.1 5.2 5.1 5.2 5.4 5.3 5.3 5.2 5.3 5.4 5.4 5.4
4.8 4.7 4.7 4.7 4.7 4.7 4.7 4.8 4.7 4.7 4.7 4.6 4.6 4.5 4.4 4.5 4.4 4.5 4.5 4.6 4.7 4.7 4.5 4.5 4.5 4.6 4.5 4.4 4.4 4.4 4.5 4.6 4.5 4.6 4.8 5.2 5.2 5.3 5.1 5.2 5.3 5.2 5.3
4.9 4.8 4.8 4.7 4.7 4.7 4.7 4.7 4.7 4.7 4.6 4.5 4.5 4.4 4.4 4.3 4.3 4.2 4.2 4.4 4.6 4.5 4.4 4.4 4.4 4.5 4.5 4.4 4.3 4.3 4.4 4.5 4.5 4.5 4.5 4.6 4.9 5.1 5.0 5.0 5.0 5.0 5.0
5.2 5.3 5.2 5.2 5.1 5.0 4.9 4.8 4.8 4.8 4.7 4.7 4.7 4.6 4.5 4.4 4.4 4.5 4.6 4.5 4.5 4.5 4.5 4.5 4.3 4.3 4.4 4.4 4.3 4.3 4.4 4.4 4.4 4.4 4.5 4.5 4.4 4.6 4.8 4.7 4.6 4.6 4.6
Wind_Speed
6 8 9 10 10 10 8 8 9 10 12 14 14 14 13 14 15 11 12 11 9 9 8 5 5 5 6 8 10 10 11 12 13 14 14 15 16 17 17 18 17 18 19
9 7 9 6 10 9 8 7 7 6 8 10 11 15 14 15 14 13 9 8 8 8 9 12 8 12 11 5 7 8 9 10 11 12 13 13 14 15 16 16 16 17 17
9 8 7 4 8 9 6 7 6 8 6 7 6 10 12 13 14 14 11 11 9 9 11 11 10 11 12 11 4 6 6 7 9 10 10 11 12 13 13 13 14 15 16
11 8 6 5 8 8 6 5 4 3 3 4 3 5 7 10 12 12 12 12 11 10 10 11 12 9 10 10 9 6 4 4 5 8 9 9 10 10 11 11 12 12 13
11 13 6 3 7 10 7 4 3 2 2 3 4 3 3 4 9 11 11 11 12 12 9 14 20 21 19 15 12 9 4 1 2 5 7 8 7 7 8 9 10 11 11
13 11 8 8 3 6 5 3 4 3 2 3 3 4 3 5 8 9 9 12 12 14 12 11 10 16 20 18 15 13 11 1 1 3 7 14 17 16 16 9 9 12 15
12 11 7 6 5 4 5 4 1 5 3 2 3 2 3 4 5 3 7 9 12 13 14 12 11 10 12 18 22 20 15 13 9 15 16 17 17 19 19 18 19 19 18
11 9 7 5 7 3 6 5 3 2 1 5 1 3 2 1 3 4 5 5 8 11 12 13 11 11 12 13 16 22 18 21 20 19 18 15 17 16 15 13 14 14 13
10 9 9 8 6 5 4 5 4 3 2 1 7 1 2 2 1 3 4 5 7 6 10 11 11 12 13 13 15 17 20 16 16 15 17 16 13 12 11 11 11 11 11
8 7 8 7 6 5 5 4 4 3 1 2 1 4 4 2 2 1 2 3 5 6 7 9 10 10 13 13 16 19 18 17 16 14 14 13 11 11 10 10 10 11 11
7 7 6 6 6 5 6 4 3 4 3 2 2 0 2 1 3 3 0 1 0 5 6 8 8 10 12 12 12 16 17 16 15 15 13 12 13 12 12 11 11 10 11
4 5 7 8 7 6 5 4 5 5 4 3 3 3 2 2 2 2 1 1 3 3 3 6 5 6 8 8 12 10 14 15 14 13 13 13 13 13 13 12 11 11 11
2 2 5 6 5 7 6 6 4 4 4 3 4 3 3 3 1 1 2 1 2 2 1 3 3 2 5 5 8 9 7 12 13 12 12 12 13 12 13 13 13 12 13
3 4 6 8 6 6 7 7 4 3 4 3 4 3 3 2 2 2 1 1 2 1 1 1 1 3 4 5 7 9 9 11 12 11 11 12 12 13 12 13 14 13 12
3 5 6 7 6 6 6 5 3 4 3 3 3 3 3 2 2 2 1 1 1 2 2 2 2 1 0 2 3 5 7 9 8 6 8 9 10 13 13 13 13 12 11
5 5 5 7 6 6 5 5 3 4 4 2 3 4 3 2 2 2 2 0 1 1 2 1 0 2 3 3 3 4 5 8 9 9 9 9 11 11 10 11 11 11 13
5 4 5 5 4 4 4 4 4 4 5 4 4 4 4 3 2 2 2 1 1 1 1 1 1 1 2 1 5 6 6 6 5 9 11 15 15 13 11 11 13 15 15
6 5 5 4 4 4 5 5 5 4 4 5 4 4 4 2 3 3 2 2 2 2 0 1 1 2 2 2 3 4 7 7 11 9 11 11 10 11 14 14 15 13 13
6 5 5 4 4 3 4 4 5 4 4 5 4 4 3 2 2 1 2 2 1 2 2 1 1 0 1 2 2 3 7 9 9 11 9 7 10 13 15 14 11 11 11
5 5 5 4 4 4 4 3 3 3 3 4 3 3 3 3 3 2 1 1 2 1 0 0 1 1 0 2 2 3 4 3 6 10 8 10 13 13 12 11 10 9 12
3 6 5 5 5 2 1 4 4 3 2 2 1 1 2 3 1 1 1 2 1 0 0 1 1 1 1 2 2 2 2 4 5 6 3 8 12 12 9 9 9 11 17
4 4 4 3 4 3 6 4 3 3 1 0 1 2 3 3 4 3 2 0 2 2 0 1 1 1 2 2 2 3 3 3 3 5 6 6 9 4 10 13 15 20 17
3 3 3 4 4 4 5 4 4 3 4 3 2 2 2 2 4 3 4 4 3 3 2 1 1 1 1 1 1 2 2 2 3 4 3 4 3 4 11 14 17 13 10
3 2 2 3 3 4 5 6 5 4 4 5 4 3 3 3 4 3 2 2 3 3 5 4 2 1 1 3 3 3 3 4 4 5 1 3 2 5 11 15 9 6 12
3 3 2 2 2 3 7 6 5 3 3 4 4 4 4 4 6 8 3 4 4 4 4 5 5 5 5 6 4 3 2 3 2 1 4 2 3 5 3 3 6 14 16
3 2 3 3 7 4 9 10 7 1 3 4 5 5 10 7 9 10 5 3 3 4 3 2 3 5 5 4 4 2 2 1 2 2 2 3 3 4 4 2 9 14 16
Wind_Direction
59 90 80 72 56 36 36 34 16 13 26 18 29 30 22 37 89 107 109 101 79 60 42 29 37 40 54 64 65 62 61 64 63 63 60 59 59 62 61 60 57 62 58
103 90 79 65 62 36 27 42 50 31 32 25 35 23 22 19 48 72 107 93 87 70 47 42 50 50 40 91 72 65 61 61 65 64 63 61 59 60 62 59 60 60 60
69 81 90 68 80 39 17 7 58 57 59 38 37 40 24 16 30 35 54 52 46 60 51 43 48 41 36 46 73 76 61 58 61 67 66 62 59 60 64 63 59 61 61
98 77 63 55 72 75 24 41 7 65 80 79 69 35 28 27 22 29 37 48 42 48 53 62 46 42 47 39 36 45 54 56 53 57 62 63 58 56 58 62 64 60 59
76 82 66 65 82 69 47 18 31 329 54 64 86 81 54 40 25 23 20 37 41 38 46 78 72 53 52 49 37 15 359 169 78 65 55 51 50 49 55 61 62 62 60
79 75 75 54 29 93 83 39 40 4 56 55 41 89 82 71 41 38 14 18 28 30 31 39 77 67 59 47 33 15 25 50 109 88 64 67 63 60 54 73 57 62 60
58 73 76 84 29 65 86 79 11 42 337 354 123 80 52 97 97 91 45 37 17 24 35 27 37 59 63 55 41 31 56 56 67 99 83 71 63 57 55 54 52 49 50
46 68 72 65 64 72 76 63 68 102 13 335 123 120 149 156 82 59 73 66 42 24 27 35 29 51 55 51 42 36 39 76 61 64 69 65 61 52 45 44 47 48 43
52 56 60 63 56 65 76 75 61 71 124 17 355 18 127 184 128 47 44 64 58 48 35 32 20 45 56 55 44 35 35 52 75 65 57 53 55 56 49 38 30 31 29
47 56 68 67 64 64 68 66 70 66 7 114 74 9 25 19 128 111 20 34 91 64 38 36 32 33 47 53 49 41 40 50 54 52 51 43 33 34 31 26 21 8 8
56 52 70 78 71 69 77 75 78 83 73 81 55 61 8 95 99 62 242 213 161 92 67 47 32 40 38 42 43 40 42 43 47 44 33 25 21 18 15 10 7 3 353
66 50 65 65 64 60 60 61 54 64 94 94 96 66 66 16 35 120 114 17 331 62 75 78 34 33 41 40 43 28 34 34 34 37 23 14 10 7 2 355 356 349 346
92 43 71 70 65 72 72 68 60 63 52 69 59 76 67 75 347 66 99 79 359 0 51 83 95 72 62 50 38 3 25 30 18 19 19 8 0 355 355 347 345 343 341
68 47 69 76 76 82 83 84 83 94 90 81 91 90 91 74 60 45 61 114 104 0 311 104 134 100 72 70 31 3 4 14 6 5 6 13 351 342 345 341 340 335 342
131 61 58 73 65 68 86 88 82 81 74 90 91 100 94 84 82 82 75 338 26 157 237 168 164 194 317 74 50 360 359 351 332 343 350 4 344 335 337 339 337 333 339
91 90 61 67 60 58 69 84 87 78 86 66 74 91 82 71 95 106 110 69 323 355 319 9 227 142 194 293 289 335 326 324 331 331 337 332 334 333 343 343 331 332 335
44 66 90 74 66 62 53 83 86 80 91 75 72 74 73 52 63 64 66 58 108 93 251 279 351 133 167 96 23 345 324 310 322 327 339 337 340 347 349 336 329 332 332
47 45 45 82 81 68 56 56 60 58 85 87 81 101 83 81 64 40 43 60 60 58 258 6 121 336 104 78 10 339 352 351 341 338 332 332 335 335 332 332 328 333 334
25 23 49 50 70 60 86 65 69 63 65 78 71 72 66 71 100 59 54 67 48 45 40 23 357 272 304 48 344 359 360 354 347 336 333 352 338 332 329 324 334 335 339
38 20 25 34 28 41 51 48 83 80 89 87 69 72 75 57 75 56 92 77 82 47 24 37 323 329 10 336 17 2 354 347 325 336 11 346 332 329 331 336 341 340 339
32 20 27 17 19 354 55 52 25 48 61 101 136 138 122 75 23 354 17 13 74 57 8 29 324 25 13 25 19 345 327 332 331 45 352 333 328 320 327 336 334 337 335
24 31 30 19 6 346 48 24 5 352 335 45 286 185 160 202 241 250 249 95 60 65 9 120 352 7 355 24 14 345 344 5 342 4 348 324 321 345 346 336 331 329 331
26 6 33 28 12 358 9 355 332 336 331 294 249 259 253 256 172 219 225 243 265 256 244 190 237 291 2 2 345 324 330 324 277 298 306 291 336 330 319 320 321 333 344
353 7 24 20 2 336 350 348 336 347 313 300 287 246 226 245 217 219 258 264 247 256 225 228 212 326 70 8 360 329 322 285 272 286 44 279 348 312 318 310 323 4 346
337 333 329 334 332 308 319 318 330 324 315 312 314 298 240 241 254 257 235 276 278 278 248 231 257 279 294 304 306 354 324 341 297 344 34 343 335 320 304 302 32 351 345
280 293 308 326 300 297 300 291 286 254 286 293 310 314 305 256 246 256 205 218 271 251 280 279 241 255 249 244 281 246 292 342 330 311 23 348 348 4 315 294 345 340 332